Back to catalog

SL-16 DEB

AliveLEO
NORAD 39300·DEBRIS·🇷🇺 Russia

Launched Dec 25, 1992 from Baikonur Cosmodrome

Loading…

Next Passes (next 24 hours)

TLE

FreshSource: Space-Track

Epoch: Sep 13, 2026, 07:44 UTC

1 39300U 92093JR  26256.32282394  .00000099  00000-0  97940-4 0  9993
2 39300  71.1196 232.7817 0102695 160.7762 199.7273 13.97000987662246

Track SL-16 DEB in real time with AllMySat

Download on the App Store